Date&Time (GMT),Global horizontal irradiance (W/m2)
01/01/2013 00:30,0
01/01/2013 01:30,0
01/01/2013 02:30,0
01/01/2013 03:30,0
01/01/2013 04:30,0
01/01/2013 05:30,0
01/01/2013 06:30,0
01/01/2013 07:30,0
01/01/2013 08:30,11.1825
01/01/2013 09:30,87.9158
01/01/2013 10:30,172.475
01/01/2013 11:30,225.833
01/01/2013 12:30,231.244
01/01/2013 13:30,193.233
01/01/2013 14:30,112.781
01/01/2013 15:30,30.4468
01/01/2013 16:30,-0.191997
01/01/2013 17:30,0
01/01/2013 18:30,0
01/01/2013 19:30,0
01/01/2013 20:30,0
01/01/2013 21:30,0
01/01/2013 22:30,0
01/01/2013 23:30,0
02/01/2013 00:30,0
02/01/2013 01:30,0
02/01/2013 02:30,0
02/01/2013 03:30,0
02/01/2013 04:30,0
02/01/2013 05:30,0
02/01/2013 06:30,0
02/01/2013 07:30,0
02/01/2013 08:30,7.50615
02/01/2013 09:30,36.8638
02/01/2013 10:30,43.5341
02/01/2013 11:30,49.5763
02/01/2013 12:30,43.8431
02/01/2013 13:30,36.4939
02/01/2013 14:30,23.8033
02/01/2013 15:30,7.09757
02/01/2013 16:30,0.531713
02/01/2013 17:30,0
02/01/2013 18:30,0
02/01/2013 19:30,0
02/01/2013 20:30,0
02/01/2013 21:30,0
02/01/2013 22:30,0
02/01/2013 23:30,0
03/01/2013 00:30,0
03/01/2013 01:30,0
03/01/2013 02:30,0
03/01/2013 03:30,0
03/01/2013 04:30,0
03/01/2013 05:30,0
03/01/2013 06:30,0
03/01/2013 07:30,0
03/01/2013 08:30,10.9666
03/01/2013 09:30,46.7042
03/01/2013 10:30,80.9165
03/01/2013 11:30,75.7155
03/01/2013 12:30,101.56
03/01/2013 13:30,88.5021
03/01/2013 14:30,48.9423
03/01/2013 15:30,14.8622
03/01/2013 16:30,0.524093
03/01/2013 17:30,0
03/01/2013 18:30,0
03/01/2013 19:30,0
03/01/2013 20:30,0
03/01/2013 21:30,0
03/01/2013 22:30,0
03/01/2013 23:30,0
04/01/2013 00:30,0
04/01/2013 01:30,0
04/01/2013 02:30,0
04/01/2013 03:30,0
04/01/2013 04:30,0
04/01/2013 05:30,0
04/01/2013 06:30,0
04/01/2013 07:30,0
04/01/2013 08:30,6.58536
04/01/2013 09:30,30.1907
04/01/2013 10:30,0
04/01/2013 11:30,0
04/01/2013 12:30,139.245
04/01/2013 13:30,159.543
04/01/2013 14:30,103.231
04/01/2013 15:30,30.8019
04/01/2013 16:30,0.408918
04/01/2013 17:30,0
04/01/2013 18:30,0
04/01/2013 19:30,0
04/01/2013 20:30,0
04/01/2013 21:30,0
04/01/2013 22:30,0
04/01/2013 23:30,0
05/01/2013 00:30,0
05/01/2013 01:30,0
05/01/2013 02:30,0
05/01/2013 03:30,0
05/01/2013 04:30,0
05/01/2013 05:30,0
05/01/2013 06:30,0
05/01/2013 07:30,0.48984
05/01/2013 08:30,5.14217
05/01/2013 09:30,24.0484
05/01/2013 10:30,40.783
05/01/2013 11:30,80.9147
05/01/2013 12:30,97.7553
05/01/2013 13:30,90.0084
05/01/2013 14:30,75.168
05/01/2013 15:30,31.5194
05/01/2013 16:30,0.506476
05/01/2013 17:30,0
05/01/2013 18:30,0
05/01/2013 19:30,0
05/01/2013 20:30,0
05/01/2013 21:30,0
05/01/2013 22:30,0
05/01/2013 23:30,0
06/01/2013 00:30,0
06/01/2013 01:30,0
06/01/2013 02:30,0
06/01/2013 03:30,0
06/01/2013 04:30,0
06/01/2013 05:30,0
06/01/2013 06:30,0
06/01/2013 07:30,0
06/01/2013 08:30,12.465
06/01/2013 09:30,52.2757
06/01/2013 10:30,82.0065
06/01/2013 11:30,124.175
06/01/2013 12:30,102.382
06/01/2013 13:30,79.8459
06/01/2013 14:30,49.5324
06/01/2013 15:30,13.9763
06/01/2013 16:30,0.736973
06/01/2013 17:30,0
06/01/2013 18:30,0
06/01/2013 19:30,0
06/01/2013 20:30,0
06/01/2013 21:30,0
06/01/2013 22:30,0
06/01/2013 23:30,0
07/01/2013 00:30,0
07/01/2013 01:30,0
07/01/2013 02:30,0
07/01/2013 03:30,0
07/01/2013 04:30,0
07/01/2013 05:30,0
07/01/2013 06:30,0
07/01/2013 07:30,0
07/01/2013 08:30,5.38434
07/01/2013 09:30,29.3421
07/01/2013 10:30,52.2684
07/01/2013 11:30,70.2382
07/01/2013 12:30,58.0259
07/01/2013 13:30,50.4685
07/01/2013 14:30,52.9597
07/01/2013 15:30,18.3185
07/01/2013 16:30,0.42043
07/01/2013 17:30,0
07/01/2013 18:30,0
07/01/2013 19:30,0
07/01/2013 20:30,0
07/01/2013 21:30,0
07/01/2013 22:30,0
07/01/2013 23:30,0
08/01/2013 00:30,0
08/01/2013 01:30,0
08/01/2013 02:30,0
08/01/2013 03:30,0
08/01/2013 04:30,0
08/01/2013 05:30,0
08/01/2013 06:30,0
08/01/2013 07:30,0
08/01/2013 08:30,8.57477
08/01/2013 09:30,42.8307
08/01/2013 10:30,55.3328
08/01/2013 11:30,81.1127
08/01/2013 12:30,106.231
08/01/2013 13:30,87.806
08/01/2013 14:30,60.5745
08/01/2013 15:30,21.6959
08/01/2013 16:30,1.02697
08/01/2013 17:30,0
08/01/2013 18:30,0
08/01/2013 19:30,0
08/01/2013 20:30,0
08/01/2013 21:30,0
08/01/2013 22:30,0
08/01/2013 23:30,0
09/01/2013 00:30,0
09/01/2013 01:30,0
09/01/2013 02:30,0
09/01/2013 03:30,0
09/01/2013 04:30,0
09/01/2013 05:30,0
09/01/2013 06:30,0
09/01/2013 07:30,0
09/01/2013 08:30,6.54634
09/01/2013 09:30,64.7471
09/01/2013 10:30,158.801
09/01/2013 11:30,225.233
09/01/2013 12:30,227.379
09/01/2013 13:30,198.408
09/01/2013 14:30,124.327
09/01/2013 15:30,47.8678
09/01/2013 16:30,0.578355
09/01/2013 17:30,0
09/01/2013 18:30,0
09/01/2013 19:30,0
09/01/2013 20:30,0
09/01/2013 21:30,0
09/01/2013 22:30,0
09/01/2013 23:30,0
10/01/2013 00:30,0
10/01/2013 01:30,0
10/01/2013 02:30,0
10/01/2013 03:30,0
10/01/2013 04:30,0
10/01/2013 05:30,0
10/01/2013 06:30,0
10/01/2013 07:30,0
10/01/2013 08:30,6.58546
10/01/2013 09:30,30.7786
10/01/2013 10:30,71.8434
10/01/2013 11:30,85.4274
10/01/2013 12:30,83.4832
10/01/2013 13:30,58.4923
10/01/2013 14:30,39.7721
10/01/2013 15:30,16.8457
10/01/2013 16:30,1.09609
10/01/2013 17:30,0
10/01/2013 18:30,0
10/01/2013 19:30,0
10/01/2013 20:30,0
10/01/2013 21:30,0
10/01/2013 22:30,0
10/01/2013 23:30,0
11/01/2013 00:30,0
11/01/2013 01:30,0
11/01/2013 02:30,0
11/01/2013 03:30,0
11/01/2013 04:30,0
11/01/2013 05:30,0
11/01/2013 06:30,0
11/01/2013 07:30,0
11/01/2013 08:30,8.98609
11/01/2013 09:30,36.5489
11/01/2013 10:30,54.9901
11/01/2013 11:30,111.8
11/01/2013 12:30,106.826
11/01/2013 13:30,112.27
11/01/2013 14:30,63.2372
11/01/2013 15:30,21.5054
11/01/2013 16:30,0.907927
11/01/2013 17:30,0
11/01/2013 18:30,0
11/01/2013 19:30,0
11/01/2013 20:30,0
11/01/2013 21:30,0
11/01/2013 22:30,0
11/01/2013 23:30,0
12/01/2013 00:30,0
12/01/2013 01:30,0
12/01/2013 02:30,0
12/01/2013 03:30,0
12/01/2013 04:30,0
12/01/2013 05:30,0
12/01/2013 06:30,0
12/01/2013 07:30,0
12/01/2013 08:30,13.5902
12/01/2013 09:30,59.1348
12/01/2013 10:30,90.7335
12/01/2013 11:30,113.453
12/01/2013 12:30,117.278
12/01/2013 13:30,122.179
12/01/2013 14:30,124.626
12/01/2013 15:30,41.3621
12/01/2013 16:30,1.60418
12/01/2013 17:30,0
12/01/2013 18:30,0
12/01/2013 19:30,0
12/01/2013 20:30,0
12/01/2013 21:30,0
12/01/2013 22:30,0
12/01/2013 23:30,0
13/01/2013 00:30,0
13/01/2013 01:30,0
13/01/2013 02:30,0
13/01/2013 03:30,0
13/01/2013 04:30,0
13/01/2013 05:30,0
13/01/2013 06:30,0
13/01/2013 07:30,0
13/01/2013 08:30,5.14114
13/01/2013 09:30,26.3287
13/01/2013 10:30,28.097
13/01/2013 11:30,64.8013
13/01/2013 12:30,111.952
13/01/2013 13:30,108.526
13/01/2013 14:30,86.5729
13/01/2013 15:30,29.0419
13/01/2013 16:30,0.199655
13/01/2013 17:30,0
13/01/2013 18:30,0
13/01/2013 19:30,0
13/01/2013 20:30,0
13/01/2013 21:30,0
13/01/2013 22:30,0
13/01/2013 23:30,0
14/01/2013 00:30,0
14/01/2013 01:30,0
14/01/2013 02:30,0
14/01/2013 03:30,0
14/01/2013 04:30,0
14/01/2013 05:30,0
14/01/2013 06:30,0
14/01/2013 07:30,0
14/01/2013 08:30,6.91369
14/01/2013 09:30,36.3993
14/01/2013 10:30,125.662
14/01/2013 11:30,122.018
14/01/2013 12:30,81.971
14/01/2013 13:30,53.0398
14/01/2013 14:30,24.264
14/01/2013 15:30,15.2998
14/01/2013 16:30,2.0124
14/01/2013 17:30,0
14/01/2013 18:30,0
14/01/2013 19:30,0
14/01/2013 20:30,0
14/01/2013 21:30,0
14/01/2013 22:30,0
14/01/2013 23:30,0
15/01/2013 00:30,0
15/01/2013 01:30,0
15/01/2013 02:30,0
15/01/2013 03:30,0
15/01/2013 04:30,0
15/01/2013 05:30,0
15/01/2013 06:30,0
15/01/2013 07:30,0
15/01/2013 08:30,21.3303
15/01/2013 09:30,107.942
15/01/2013 10:30,183.845
15/01/2013 11:30,232.208
15/01/2013 12:30,181.907
15/01/2013 13:30,161.426
15/01/2013 14:30,125.157
15/01/2013 15:30,50.5878
15/01/2013 16:30,3.04391
15/01/2013 17:30,0
15/01/2013 18:30,0
15/01/2013 19:30,0
15/01/2013 20:30,0
15/01/2013 21:30,0
15/01/2013 22:30,0
15/01/2013 23:30,0
16/01/2013 00:30,0
16/01/2013 01:30,0
16/01/2013 02:30,0
16/01/2013 03:30,0
16/01/2013 04:30,0
16/01/2013 05:30,0
16/01/2013 06:30,0
16/01/2013 07:30,0
16/01/2013 08:30,30.2034
16/01/2013 09:30,127.308
16/01/2013 10:30,195.791
16/01/2013 11:30,222.338
16/01/2013 12:30,231.618
16/01/2013 13:30,174.995
16/01/2013 14:30,149.547
16/01/2013 15:30,71.2266
16/01/2013 16:30,3.9984
16/01/2013 17:30,0
16/01/2013 18:30,0
16/01/2013 19:30,0
16/01/2013 20:30,0
16/01/2013 21:30,0
16/01/2013 22:30,0
16/01/2013 23:30,0
17/01/2013 00:30,0
17/01/2013 01:30,0
17/01/2013 02:30,0
17/01/2013 03:30,0
17/01/2013 04:30,0
17/01/2013 05:30,0
17/01/2013 06:30,0
17/01/2013 07:30,0
17/01/2013 08:30,11.9741
17/01/2013 09:30,40.4059
17/01/2013 10:30,83.4713
17/01/2013 11:30,199.113
17/01/2013 12:30,133.489
17/01/2013 13:30,220.681
17/01/2013 14:30,171.608
17/01/2013 15:30,63.9381
17/01/2013 16:30,3.56567
17/01/2013 17:30,0
17/01/2013 18:30,0
17/01/2013 19:30,0
17/01/2013 20:30,0
17/01/2013 21:30,0
17/01/2013 22:30,0
17/01/2013 23:30,0
18/01/2013 00:30,0
18/01/2013 01:30,0
18/01/2013 02:30,0
18/01/2013 03:30,0
18/01/2013 04:30,0
18/01/2013 05:30,0
18/01/2013 06:30,0
18/01/2013 07:30,0
18/01/2013 08:30,6.02711
18/01/2013 09:30,30.9562
18/01/2013 10:30,42.0316
18/01/2013 11:30,47.6187
18/01/2013 12:30,60.7177
18/01/2013 13:30,96.0261
18/01/2013 14:30,69.4463
18/01/2013 15:30,24.7512
18/01/2013 16:30,3.21407
18/01/2013 17:30,0
18/01/2013 18:30,0
18/01/2013 19:30,0
18/01/2013 20:30,0
18/01/2013 21:30,0
18/01/2013 22:30,0
18/01/2013 23:30,0
19/01/2013 00:30,0
19/01/2013 01:30,0
19/01/2013 02:30,0
19/01/2013 03:30,0
19/01/2013 04:30,0
19/01/2013 05:30,0
19/01/2013 06:30,0
19/01/2013 07:30,0
19/01/2013 08:30,3.81645
19/01/2013 09:30,17.5206
19/01/2013 10:30,38.0945
19/01/2013 11:30,59.7419
19/01/2013 12:30,56.5089
19/01/2013 13:30,50.8505
19/01/2013 14:30,29.9101
19/01/2013 15:30,13.7006
19/01/2013 16:30,1.46883
19/01/2013 17:30,0
19/01/2013 18:30,0
19/01/2013 19:30,0
19/01/2013 20:30,0
19/01/2013 21:30,0
19/01/2013 22:30,0
19/01/2013 23:30,0
20/01/2013 00:30,0
20/01/2013 01:30,0
20/01/2013 02:30,0
20/01/2013 03:30,0
20/01/2013 04:30,0
20/01/2013 05:30,0
20/01/2013 06:30,0
20/01/2013 07:30,0
20/01/2013 08:30,3.83777
20/01/2013 09:30,23.818
20/01/2013 10:30,53.6941
20/01/2013 11:30,63.4432
20/01/2013 12:30,69.7285
20/01/2013 13:30,75.9632
20/01/2013 14:30,53.6515
20/01/2013 15:30,28.6977
20/01/2013 16:30,3.70834
20/01/2013 17:30,0
20/01/2013 18:30,0
20/01/2013 19:30,0
20/01/2013 20:30,0
20/01/2013 21:30,0
20/01/2013 22:30,0
20/01/2013 23:30,0
21/01/2013 00:30,0
21/01/2013 01:30,0
21/01/2013 02:30,0
21/01/2013 03:30,0
21/01/2013 04:30,0
21/01/2013 05:30,0
21/01/2013 06:30,0
21/01/2013 07:30,0
21/01/2013 08:30,8.64827
21/01/2013 09:30,24.0916
21/01/2013 10:30,46.856
21/01/2013 11:30,73.1787
21/01/2013 12:30,89.5428
21/01/2013 13:30,80.6163
21/01/2013 14:30,60.4551
21/01/2013 15:30,27.2738
21/01/2013 16:30,2.9272
21/01/2013 17:30,0
21/01/2013 18:30,0
21/01/2013 19:30,0
21/01/2013 20:30,0
21/01/2013 21:30,0
21/01/2013 22:30,0
21/01/2013 23:30,0
22/01/2013 00:30,0
22/01/2013 01:30,0
22/01/2013 02:30,0
22/01/2013 03:30,0
22/01/2013 04:30,0
22/01/2013 05:30,0
22/01/2013 06:30,0
22/01/2013 07:30,0.625945
22/01/2013 08:30,12.4522
22/01/2013 09:30,69.2475
22/01/2013 10:30,116.849
22/01/2013 11:30,169.565
22/01/2013 12:30,195.964
22/01/2013 13:30,152.876
22/01/2013 14:30,90.9358
22/01/2013 15:30,41.5445
22/01/2013 16:30,4.02655
22/01/2013 17:30,0
22/01/2013 18:30,0
22/01/2013 19:30,0
22/01/2013 20:30,0
22/01/2013 21:30,0
22/01/2013 22:30,0
22/01/2013 23:30,0
23/01/2013 00:30,0
23/01/2013 01:30,0
23/01/2013 02:30,0
23/01/2013 03:30,0
23/01/2013 04:30,0
23/01/2013 05:30,0
23/01/2013 06:30,0
23/01/2013 07:30,0
23/01/2013 08:30,8.78762
23/01/2013 09:30,32.3665
23/01/2013 10:30,64.8019
23/01/2013 11:30,96.0813
23/01/2013 12:30,108.145
23/01/2013 13:30,97.0716
23/01/2013 14:30,82.0433
23/01/2013 15:30,34.2783
23/01/2013 16:30,7.21846
23/01/2013 17:30,0
23/01/2013 18:30,0
23/01/2013 19:30,0
23/01/2013 20:30,0
23/01/2013 21:30,0
23/01/2013 22:30,0
23/01/2013 23:30,0
24/01/2013 00:30,0
24/01/2013 01:30,0
24/01/2013 02:30,0
24/01/2013 03:30,0
24/01/2013 04:30,0
24/01/2013 05:30,0
24/01/2013 06:30,0
24/01/2013 07:30,0
24/01/2013 08:30,11.2622
24/01/2013 09:30,35.6576
24/01/2013 10:30,66.1897
24/01/2013 11:30,88.1763
24/01/2013 12:30,94.6125
24/01/2013 13:30,93.5557
24/01/2013 14:30,66.6801
24/01/2013 15:30,45.8348
24/01/2013 16:30,5.88166
24/01/2013 17:30,0
24/01/2013 18:30,0
24/01/2013 19:30,0
24/01/2013 20:30,0
24/01/2013 21:30,0
24/01/2013 22:30,0
24/01/2013 23:30,0
25/01/2013 00:30,0
25/01/2013 01:30,0
25/01/2013 02:30,0
25/01/2013 03:30,0
25/01/2013 04:30,0
25/01/2013 05:30,0
25/01/2013 06:30,0
25/01/2013 07:30,0.334685
25/01/2013 08:30,22.9164
25/01/2013 09:30,62.4726
25/01/2013 10:30,86.4552
25/01/2013 11:30,106.162
25/01/2013 12:30,106.046
25/01/2013 13:30,98.9124
25/01/2013 14:30,66.2685
25/01/2013 15:30,49.5729
25/01/2013 16:30,8.1307
25/01/2013 17:30,0
25/01/2013 18:30,0
25/01/2013 19:30,0
25/01/2013 20:30,0
25/01/2013 21:30,0
25/01/2013 22:30,0
25/01/2013 23:30,0
26/01/2013 00:30,0
26/01/2013 01:30,0
26/01/2013 02:30,0
26/01/2013 03:30,0
26/01/2013 04:30,0
26/01/2013 05:30,0
26/01/2013 06:30,0
26/01/2013 07:30,0.330089
26/01/2013 08:30,28.8379
26/01/2013 09:30,145.259
26/01/2013 10:30,241.182
26/01/2013 11:30,297.023
26/01/2013 12:30,317.676
26/01/2013 13:30,212.748
26/01/2013 14:30,141.419
26/01/2013 15:30,62.1733
26/01/2013 16:30,13.0172
26/01/2013 17:30,0
26/01/2013 18:30,0
26/01/2013 19:30,0
26/01/2013 20:30,0
26/01/2013 21:30,0
26/01/2013 22:30,0
26/01/2013 23:30,0
27/01/2013 00:30,0
27/01/2013 01:30,0
27/01/2013 02:30,0
27/01/2013 03:30,0
27/01/2013 04:30,0
27/01/2013 05:30,0
27/01/2013 06:30,0
27/01/2013 07:30,0.48642
27/01/2013 08:30,11.6064
27/01/2013 09:30,81.4933
27/01/2013 10:30,200.231
27/01/2013 11:30,306.845
27/01/2013 12:30,322.883
27/01/2013 13:30,286.945
27/01/2013 14:30,197.927
27/01/2013 15:30,88.8625
27/01/2013 16:30,15.6102
27/01/2013 17:30,0
27/01/2013 18:30,0
27/01/2013 19:30,0
27/01/2013 20:30,0
27/01/2013 21:30,0
27/01/2013 22:30,0
27/01/2013 23:30,0
28/01/2013 00:30,0
28/01/2013 01:30,0
28/01/2013 02:30,0
28/01/2013 03:30,0
28/01/2013 04:30,0
28/01/2013 05:30,0
28/01/2013 06:30,0
28/01/2013 07:30,0
28/01/2013 08:30,46.191
28/01/2013 09:30,154.951
28/01/2013 10:30,202.818
28/01/2013 11:30,183.332
28/01/2013 12:30,142.319
28/01/2013 13:30,72.2404
28/01/2013 14:30,33.3915
28/01/2013 15:30,29.5285
28/01/2013 16:30,5.53922
28/01/2013 17:30,0.685533
28/01/2013 18:30,0
28/01/2013 19:30,0
28/01/2013 20:30,0
28/01/2013 21:30,0
28/01/2013 22:30,0
28/01/2013 23:30,0
29/01/2013 00:30,0
29/01/2013 01:30,0
29/01/2013 02:30,0
29/01/2013 03:30,0
29/01/2013 04:30,0
29/01/2013 05:30,0
29/01/2013 06:30,0
29/01/2013 07:30,0.30865
29/01/2013 08:30,16.1168
29/01/2013 09:30,46.2241
29/01/2013 10:30,62.5713
29/01/2013 11:30,60.7778
29/01/2013 12:30,60.0126
29/01/2013 13:30,48.2383
29/01/2013 14:30,40.8372
29/01/2013 15:30,37.5702
29/01/2013 16:30,8.62027
29/01/2013 17:30,0.417091
29/01/2013 18:30,0
29/01/2013 19:30,0
29/01/2013 20:30,0
29/01/2013 21:30,0
29/01/2013 22:30,0
29/01/2013 23:30,0
30/01/2013 00:30,0
30/01/2013 01:30,0
30/01/2013 02:30,0
30/01/2013 03:30,0
30/01/2013 04:30,0
30/01/2013 05:30,0
30/01/2013 06:30,0
30/01/2013 07:30,0.432078
30/01/2013 08:30,50.6695
30/01/2013 09:30,87.9981
30/01/2013 10:30,152.248
30/01/2013 11:30,273.979
30/01/2013 12:30,288.768
30/01/2013 13:30,278.965
30/01/2013 14:30,217.936
30/01/2013 15:30,113.067
30/01/2013 16:30,21.5839
30/01/2013 17:30,0
30/01/2013 18:30,0
30/01/2013 19:30,0
30/01/2013 20:30,0
30/01/2013 21:30,0
30/01/2013 22:30,0
30/01/2013 23:30,0
31/01/2013 00:30,0
31/01/2013 01:30,0
31/01/2013 02:30,0
31/01/2013 03:30,0
31/01/2013 04:30,0
31/01/2013 05:30,0
31/01/2013 06:30,0
31/01/2013 07:30,0.737123
31/01/2013 08:30,28.761
31/01/2013 09:30,116.105
31/01/2013 10:30,209.638
31/01/2013 11:30,286.766
31/01/2013 12:30,271.845
31/01/2013 13:30,274.176
31/01/2013 14:30,213.422
31/01/2013 15:30,98.9168
31/01/2013 16:30,18.5579
31/01/2013 17:30,0.806029
31/01/2013 18:30,0
31/01/2013 19:30,0
31/01/2013 20:30,0
31/01/2013 21:30,0
31/01/2013 22:30,0
31/01/2013 23:30,0
01/02/2009 00:30,0
01/02/2009 01:30,0
01/02/2009 02:30,0
01/02/2009 03:30,0
01/02/2009 04:30,0
01/02/2009 05:30,0
01/02/2009 06:30,0.463585
01/02/2009 07:30,0.959735
01/02/2009 08:30,13.6497
01/02/2009 09:30,78.1863
01/02/2009 10:30,127.711
01/02/2009 11:30,234.15
01/02/2009 12:30,238.71
01/02/2009 13:30,188.109
01/02/2009 14:30,112.44
01/02/2009 15:30,93.7777
01/02/2009 16:30,17.4146
01/02/2009 17:30,1.91842
01/02/2009 18:30,0
01/02/2009 19:30,0
01/02/2009 20:30,0
01/02/2009 21:30,0
01/02/2009 22:30,0
01/02/2009 23:30,0
02/02/2009 00:30,0
02/02/2009 01:30,0
02/02/2009 02:30,0
02/02/2009 03:30,0
02/02/2009 04:30,0
02/02/2009 05:30,0
02/02/2009 06:30,0.301104
02/02/2009 07:30,0.869713
02/02/2009 08:30,14.3104
02/02/2009 09:30,57.7277
02/02/2009 10:30,86.8846
02/02/2009 11:30,102.121
02/02/2009 12:30,92.6043
02/02/2009 13:30,72.0772
02/02/2009 14:30,53.459
02/02/2009 15:30,33.4925
02/02/2009 16:30,7.96866
02/02/2009 17:30,1.68456
02/02/2009 18:30,0
02/02/2009 19:30,0
02/02/2009 20:30,0
02/02/2009 21:30,0
02/02/2009 22:30,0
02/02/2009 23:30,0
03/02/2009 00:30,0
03/02/2009 01:30,0
03/02/2009 02:30,0
03/02/2009 03:30,0
03/02/2009 04:30,0
03/02/2009 05:30,0
03/02/2009 06:30,0.946907
03/02/2009 07:30,1.83093
03/02/2009 08:30,54.0854
03/02/2009 09:30,171.784
03/02/2009 10:30,314.676
03/02/2009 11:30,333.208
03/02/2009 12:30,342.69
03/02/2009 13:30,262.45
03/02/2009 14:30,195.088
03/02/2009 15:30,104.552
03/02/2009 16:30,23.6556
03/02/2009 17:30,1.16502
03/02/2009 18:30,0
03/02/2009 19:30,0
03/02/2009 20:30,0
03/02/2009 21:30,0
03/02/2009 22:30,0
03/02/2009 23:30,0
04/02/2009 00:30,0
04/02/2009 01:30,0
04/02/2009 02:30,0
04/02/2009 03:30,0
04/02/2009 04:30,0
04/02/2009 05:30,0
04/02/2009 06:30,0.667979
04/02/2009 07:30,2.34932
04/02/2009 08:30,97.786
04/02/2009 09:30,220.5
04/02/2009 10:30,301.881
04/02/2009 11:30,330.119
04/02/2009 12:30,321.999
04/02/2009 13:30,295.11
04/02/2009 14:30,205.622
04/02/2009 15:30,90.3798
04/02/2009 16:30,20.2385
04/02/2009 17:30,1.72503
04/02/2009 18:30,0
04/02/2009 19:30,0
04/02/2009 20:30,0
04/02/2009 21:30,0
04/02/2009 22:30,0
04/02/2009 23:30,0
05/02/2009 00:30,0
05/02/2009 01:30,0
05/02/2009 02:30,0
05/02/2009 03:30,0
05/02/2009 04:30,0
05/02/2009 05:30,0
05/02/2009 06:30,0.3251
05/02/2009 07:30,1.03308
05/02/2009 08:30,0
05/02/2009 09:30,35.7424
05/02/2009 10:30,76.7494
05/02/2009 11:30,96.3856
05/02/2009 12:30,103.797
05/02/2009 13:30,83.6571
05/02/2009 14:30,73.0272
05/02/2009 15:30,35.7753
05/02/2009 16:30,14.7151
05/02/2009 17:30,1.3594
05/02/2009 18:30,0
05/02/2009 19:30,0
05/02/2009 20:30,0
05/02/2009 21:30,0
05/02/2009 22:30,0
05/02/2009 23:30,0
06/02/2009 00:30,0
06/02/2009 01:30,0
06/02/2009 02:30,0
06/02/2009 03:30,0
06/02/2009 04:30,0
06/02/2009 05:30,0
06/02/2009 06:30,0.373544
06/02/2009 07:30,1.22858
06/02/2009 08:30,9.43834
06/02/2009 09:30,42.4157
06/02/2009 10:30,55.3156
06/02/2009 11:30,63.4694
06/02/2009 12:30,74.6262
06/02/2009 13:30,55.2024
06/02/2009 14:30,40.2976
06/02/2009 15:30,23.2335
06/02/2009 16:30,6.96117
06/02/2009 17:30,1.90555
06/02/2009 18:30,0
06/02/2009 19:30,0
06/02/2009 20:30,0
06/02/2009 21:30,0
06/02/2009 22:30,0
06/02/2009 23:30,0
07/02/2009 00:30,0
07/02/2009 01:30,0
07/02/2009 02:30,0
07/02/2009 03:30,0
07/02/2009 04:30,0
07/02/2009 05:30,0
07/02/2009 06:30,0.706454
07/02/2009 07:30,2.16969
07/02/2009 08:30,61.1794
07/02/2009 09:30,197.813
07/02/2009 10:30,332.829
07/02/2009 11:30,352.207
07/02/2009 12:30,366.618
07/02/2009 13:30,333.126
07/02/2009 14:30,223.923
07/02/2009 15:30,113.336
07/02/2009 16:30,27.3046
07/02/2009 17:30,0.840119
07/02/2009 18:30,0
07/02/2009 19:30,0
07/02/2009 20:30,0
07/02/2009 21:30,0
07/02/2009 22:30,0
07/02/2009 23:30,0
08/02/2009 00:30,0
08/02/2009 01:30,0
08/02/2009 02:30,0
08/02/2009 03:30,0
08/02/2009 04:30,0
08/02/2009 05:30,0
08/02/2009 06:30,0.595359
08/02/2009 07:30,7.82605
08/02/2009 08:30,65.5963
08/02/2009 09:30,108.777
08/02/2009 10:30,221.754
08/02/2009 11:30,283.822
08/02/2009 12:30,329.409
08/02/2009 13:30,346.76
08/02/2009 14:30,244.124
08/02/2009 15:30,101.037
08/02/2009 16:30,24.8375
08/02/2009 17:30,0.902703
08/02/2009 18:30,0
08/02/2009 19:30,0
08/02/2009 20:30,0
08/02/2009 21:30,0
08/02/2009 22:30,0
08/02/2009 23:30,0
09/02/2009 00:30,0
09/02/2009 01:30,0
09/02/2009 02:30,0
09/02/2009 03:30,0
09/02/2009 04:30,0
09/02/2009 05:30,0
09/02/2009 06:30,0.501159
09/02/2009 07:30,4.20518
09/02/2009 08:30,37.2616
09/02/2009 09:30,70.4161
09/02/2009 10:30,84.7797
09/02/2009 11:30,100.438
09/02/2009 12:30,85.3074
09/02/2009 13:30,92.3679
09/02/2009 14:30,60.8474
09/02/2009 15:30,33.718
09/02/2009 16:30,8.01616
09/02/2009 17:30,0.690679
09/02/2009 18:30,0
09/02/2009 19:30,0
09/02/2009 20:30,0
09/02/2009 21:30,0
09/02/2009 22:30,0
09/02/2009 23:30,0
10/02/2009 00:30,0
10/02/2009 01:30,0
10/02/2009 02:30,0
10/02/2009 03:30,0
10/02/2009 04:30,0
10/02/2009 05:30,0
10/02/2009 06:30,1.32027
10/02/2009 07:30,2.28817
10/02/2009 08:30,25.6179
10/02/2009 09:30,67.5157
10/02/2009 10:30,147.446
10/02/2009 11:30,172.419
10/02/2009 12:30,151.33
10/02/2009 13:30,182.821
10/02/2009 14:30,160.664
10/02/2009 15:30,117.374
10/02/2009 16:30,36.5071
10/02/2009 17:30,1.1558
10/02/2009 18:30,0
10/02/2009 19:30,0
10/02/2009 20:30,0
10/02/2009 21:30,0
10/02/2009 22:30,0
10/02/2009 23:30,0
11/02/2009 00:30,0
11/02/2009 01:30,0
11/02/2009 02:30,0
11/02/2009 03:30,0
11/02/2009 04:30,0
11/02/2009 05:30,0
11/02/2009 06:30,0.825384
11/02/2009 07:30,0
11/02/2009 08:30,106.785
11/02/2009 09:30,179.822
11/02/2009 10:30,253.84
11/02/2009 11:30,283.785
11/02/2009 12:30,207.036
11/02/2009 13:30,130.379
11/02/2009 14:30,96.3307
11/02/2009 15:30,33.585
11/02/2009 16:30,14.1487
11/02/2009 17:30,2.21331
11/02/2009 18:30,0
11/02/2009 19:30,0
11/02/2009 20:30,0
11/02/2009 21:30,0
11/02/2009 22:30,0
11/02/2009 23:30,0
12/02/2009 00:30,0
12/02/2009 01:30,0
12/02/2009 02:30,0
12/02/2009 03:30,0
12/02/2009 04:30,0
12/02/2009 05:30,0
12/02/2009 06:30,0.415748
12/02/2009 07:30,8.37468
12/02/2009 08:30,90.8813
12/02/2009 09:30,290.105
12/02/2009 10:30,375.159
12/02/2009 11:30,344.075
12/02/2009 12:30,293.743
12/02/2009 13:30,158.017
12/02/2009 14:30,90.1528
12/02/2009 15:30,50.3917
12/02/2009 16:30,12.5646
12/02/2009 17:30,1.37419
12/02/2009 18:30,0
12/02/2009 19:30,0
12/02/2009 20:30,0
12/02/2009 21:30,0
12/02/2009 22:30,0
12/02/2009 23:30,0
13/02/2009 00:30,0
13/02/2009 01:30,0
13/02/2009 02:30,0
13/02/2009 03:30,0
13/02/2009 04:30,0
13/02/2009 05:30,0
13/02/2009 06:30,0.894125
13/02/2009 07:30,6.3122
13/02/2009 08:30,44.2801
13/02/2009 09:30,155.72
13/02/2009 10:30,238.309
13/02/2009 11:30,309.143
13/02/2009 12:30,361.505
13/02/2009 13:30,331.073
13/02/2009 14:30,238.064
13/02/2009 15:30,165.266
13/02/2009 16:30,0
13/02/2009 17:30,1.00761
13/02/2009 18:30,0
13/02/2009 19:30,0
13/02/2009 20:30,0
13/02/2009 21:30,0
13/02/2009 22:30,0
13/02/2009 23:30,0
14/02/2009 00:30,0
14/02/2009 01:30,0
14/02/2009 02:30,0
14/02/2009 03:30,0
14/02/2009 04:30,0
14/02/2009 05:30,0
14/02/2009 06:30,0.445016
14/02/2009 07:30,7.7528